Probability
3 5 5 4 1 0 0 2 4 3 2 1 1 1 0 0 1 2 2 2 1 0 0 0 0 0 0 0 0 0 0 0 0 0 0 0 0 0 0 0 0 0 0
3 4 5 3 1 0 1 2 3 2 2 2 2 2 1 0 0 1 1 1 0 0 0 0 0 0 0 0 0 0 0 0 0 0 0 0 0 0 0 0 0 0 0
1 2 2 2 1 0 1 1 1 1 1 2 4 4 2 0 0 0 0 0 0 0 0 0 0 0 0 0 0 0 0 0 0 0 0 0 0 0 0 0 0 0 0
0 1 1 1 1 0 0 0 0 0 1 2 4 4 3 2 2 2 2 1 2 2 1 0 0 0 0 0 0 0 0 0 0 0 0 0 0 0 0 0 0 0 0
1 2 2 2 1 0 0 0 0 0 1 1 1 2 2 4 5 5 4 3 4 4 3 1 0 0 0 0 0 0 0 0 0 0 0 0 0 0 0 0 0 0 0
1 2 1 1 0 0 0 0 0 0 0 0 0 0 1 3 5 5 4 3 3 4 4 3 2 0 0 0 0 0 0 0 0 0 0 0 0 0 0 0 0 0 0
1 1 0 0 0 0 0 0 0 0 0 0 0 0 1 1 2 2 2 3 3 3 3 4 3 2 0 0 0 0 0 1 0 0 0 0 0 0 0 0 0 0 0
1 0 0 0 0 0 0 0 0 0 0 0 0 0 0 0 0 0 1 2 5 5 4 4 4 3 1 0 0 0 0 0 0 0 0 0 0 0 0 0 0 0 0
0 0 0 0 0 0 0 0 0 0 0 0 0 0 0 0 0 0 0 1 3 5 5 5 4 2 1 1 1 0 0 0 0 0 0 2 2 1 0 0 0 0 0
0 0 0 0 0 0 0 0 0 0 0 0 0 0 0 0 0 0 0 0 1 2 4 4 3 2 2 3 2 0 0 0 0 0 1 4 5 2 0 0 0 0 0
0 0 0 0 0 0 0 0 0 0 0 0 0 0 0 0 0 0 0 0 0 1 3 3 2 2 3 3 2 1 0 0 0 0 2 5 6 2 0 0 0 0 0
0 0 0 0 0 0 0 0 0 0 0 0 0 0 0 0 0 0 0 0 0 1 2 2 1 1 1 1 2 2 1 0 0 0 2 6 6 2 0 0 0 0 0
0 0 0 0 0 0 0 0 0 0 0 0 0 0 0 0 0 0 0 0 0 1 1 1 1 0 0 1 3 4 1 0 0 0 2 6 5 2 0 0 0 0 0
0 0 0 0 0 0 0 0 0 0 0 0 0 0 0 0 0 0 0 0 0 0 1 1 1 0 0 2 4 4 2 0 0 0 1 4 3 1 0 0 0 0 0
0 0 0 0 0 0 0 0 0 0 0 0 0 0 0 0 0 0 0 0 0 0 0 1 1 0 0 1 2 3 2 0 0 0 0 1 1 0 0 0 0 0 0
0 0 0 0 0 0 0 0 0 0 0 0 0 0 0 0 0 0 0 0 0 0 0 0 0 0 0 0 1 2 1 0 0 0 0 0 0 0 0 0 0 0 0
0 0 0 0 0 0 0 0 0 0 0 0 0 0 0 0 0 0 0 0 0 0 0 0 0 0 0 0 0 1 0 0 0 1 0 0 0 0 0 0 0 0 0
0 0 0 0 0 0 0 0 0 0 0 0 0 0 0 0 0 0 0 0 0 0 0 0 0 0 0 0 0 0 0 0 0 0 0 0 0 0 0 0 0 0 0
0 0 0 0 0 0 0 0 0 0 0 0 0 0 0 0 0 0 0 0 0 0 0 0 0 0 0 0 0 0 0 0 0 0 0 0 0 0 0 0 0 0 0
0 0 0 0 0 0 0 0 0 0 0 0 0 0 0 0 0 0 0 0 0 0 0 0 0 0 0 0 0 0 0 0 0 0 0 0 0 0 0 0 0 0 0
0 0 0 0 0 0 0 0 0 0 0 0 0 0 0 0 0 0 0 0 0 0 0 0 0 0 0 0 0 0 0 0 0 0 0 0 0 0 0 0 0 0 0
0 0 0 0 0 0 0 0 0 0 0 0 0 0 0 0 0 0 0 0 0 0 0 0 0 0 0 0 0 0 0 0 0 0 0 0 0 0 0 0 0 0 0
0 0 0 0 0 0 0 0 0 0 0 0 0 0 0 0 0 0 0 0 0 0 0 0 0 0 0 0 0 0 0 0 0 0 0 0 0 0 0 0 0 0 0
0 0 0 0 0 0 0 0 0 0 0 0 0 0 0 0 0 0 0 0 0 0 0 0 0 0 0 0 0 0 0 0 0 0 0 0 0 0 0 0 0 0 0
0 0 0 0 0 0 0 0 0 0 0 0 0 0 0 0 0 0 0 0 0 0 0 0 0 0 0 0 0 0 0 0 0 0 0 0 0 0 0 0 0 0 0
0 0 0 0 0 0 0 0 0 0 0 0 0 0 0 0 0 0 0 0 0 0 0 0 0 0 0 0 0 0 0 0 0 0 0 0 0 0 0 0 0 0 0
Wind_Speed
9 11 11 10 9 8 8 7 7 6 6 5 5 5 4 4 4 4 4 4 4 4 4 4 5 5 5 5 5 6 5 5 5 4 3 3 3 3 4 5 5 5 8
12 12 11 10 9 8 7 7 6 5 5 4 4 4 3 3 3 3 2 2 3 3 3 3 3 4 4 4 4 5 5 5 4 3 2 1 1 2 3 4 6 5 6
13 13 11 10 9 8 7 7 6 5 5 4 4 3 3 3 3 3 3 3 3 3 2 2 2 3 3 3 3 4 4 5 5 5 5 3 2 4 4 4 5 6 5
12 11 11 10 9 8 7 6 6 5 4 3 3 3 3 3 4 4 4 4 4 4 3 3 2 2 2 2 3 3 4 5 6 7 4 1 2 6 4 4 4 4 4
12 12 11 10 9 8 7 6 5 5 4 3 2 2 3 3 4 5 5 5 5 5 5 4 4 3 3 3 3 4 4 5 7 8 5 1 3 5 5 4 3 3 3
12 12 10 10 9 7 6 5 5 4 4 3 3 3 3 4 4 5 5 6 5 5 5 5 5 5 5 4 4 4 5 6 7 5 2 1 3 5 5 4 3 3 3
10 11 11 10 9 7 6 5 4 4 3 3 3 4 4 5 5 5 6 6 5 5 5 5 5 5 5 5 4 4 5 6 6 5 3 2 4 6 5 4 3 3 3
8 8 11 11 10 8 7 5 3 3 3 3 4 4 5 5 6 6 6 6 5 5 6 5 5 6 6 5 5 5 5 6 6 5 3 3 8 7 5 4 3 3 3
5 5 7 9 9 9 8 6 4 1 1 3 4 4 5 7 8 8 8 7 6 6 6 6 6 7 7 6 5 5 5 6 5 5 4 3 8 7 5 4 3 3 3
5 4 4 4 5 5 6 8 6 4 4 5 5 6 7 9 10 11 10 8 7 7 6 7 7 8 8 7 6 6 6 6 6 6 2 5 9 7 5 4 4 4 3
4 2 4 3 3 2 4 7 6 6 7 6 6 8 8 6 5 6 7 7 6 7 7 8 8 9 8 7 7 7 6 4 5 4 2 8 10 7 5 4 4 4 4
4 2 3 2 3 2 3 2 1 1 3 4 0 1 3 3 2 3 2 6 7 8 8 9 10 8 6 3 5 7 3 5 5 3 4 11 10 8 5 4 4 4 5
4 4 4 3 3 4 3 2 1 1 0 1 2 2 2 2 2 1 0 3 4 6 4 4 6 4 3 3 2 3 4 4 3 1 4 10 9 8 6 5 5 5 5
5 5 4 4 4 5 4 2 2 1 2 2 3 4 3 2 2 2 1 1 1 1 2 2 2 4 4 4 4 5 5 3 2 1 5 10 9 8 6 5 5 6 6
5 4 5 3 4 3 2 1 1 3 2 2 2 3 3 2 2 3 2 1 1 1 1 2 3 3 4 4 4 4 3 3 2 1 3 9 9 8 7 7 7 7 7
6 5 6 2 2 2 2 2 3 2 1 2 2 3 3 2 2 2 3 2 1 1 1 1 2 2 2 2 3 3 2 2 2 3 2 5 8 8 8 8 8 7 7
6 7 7 2 2 4 5 4 2 1 3 3 2 3 4 3 3 3 3 3 2 2 2 1 1 1 1 2 3 3 2 2 2 3 2 3 4 8 9 8 8 7 7
6 6 7 3 3 4 4 2 3 2 3 2 2 3 5 6 5 3 3 3 3 2 2 1 1 1 1 1 1 2 1 1 2 4 2 2 3 4 7 9 8 7 7
6 3 6 6 2 4 2 1 1 2 2 2 3 3 5 6 6 4 3 3 4 3 2 3 1 0 1 1 1 2 1 1 2 4 3 2 3 4 4 8 9 8 7
5 2 5 6 2 3 1 1 3 2 2 2 3 4 4 4 5 4 3 4 4 3 3 3 2 2 0 1 2 1 1 2 2 2 2 2 1 3 4 5 5 6 8
6 3 4 4 4 3 2 2 2 2 1 2 2 3 3 4 5 4 4 3 3 2 3 3 2 2 1 0 1 1 1 2 2 2 1 1 1 1 3 5 5 4 5
7 4 4 5 5 5 2 1 1 1 1 2 1 2 3 4 5 6 5 4 3 2 3 3 2 2 2 1 0 1 0 0 1 1 1 1 1 0 1 3 4 5 4
7 5 3 6 6 5 3 2 2 2 1 2 1 2 2 2 3 4 5 4 4 3 3 3 3 3 2 2 1 1 1 1 1 1 1 1 0 0 1 0 1 3 4
7 5 4 6 5 5 4 3 1 1 1 1 0 1 0 2 2 3 4 5 4 3 4 4 4 2 2 2 2 1 1 1 1 0 1 0 1 1 0 0 0 0 2
7 6 3 6 6 5 4 4 1 1 1 1 1 1 0 2 2 2 2 3 3 3 4 4 4 3 2 2 1 1 2 1 1 1 0 1 1 0 0 0 1 1 1
7 6 5 6 5 5 3 3 3 2 1 1 0 1 1 1 2 2 1 3 3 3 4 4 3 3 3 2 2 2 2 2 1 1 1 0 0 0 0 0 1 1 2
Wind_Direction
108 113 115 108 103 97 92 88 84 80 75 71 65 58 52 46 38 36 35 33 24 21 23 25 22 23 26 27 26 27 28 27 29 31 38 54 61 64 62 54 50 80 84
113 112 110 105 100 95 89 85 82 77 71 64 57 51 37 24 16 10 5 2 358 354 359 7 7 10 12 16 16 14 15 13 4 350 331 293 162 109 78 55 65 90 89
112 116 109 101 97 92 85 80 75 70 64 55 44 36 20 353 342 333 322 318 317 315 316 328 337 343 353 355 355 358 360 351 338 320 298 269 179 140 102 81 83 91 90
107 107 102 102 97 92 86 78 71 64 55 46 35 18 357 333 324 314 303 298 293 288 284 282 284 297 315 323 327 332 337 331 319 311 291 241 137 127 115 100 95 98 95
104 101 101 100 95 87 79 73 66 55 40 26 14 347 330 317 312 307 301 294 289 282 274 269 266 268 273 282 294 305 312 312 309 301 296 48 103 128 119 108 101 108 113
107 106 105 102 98 90 79 69 59 45 30 9 348 318 305 303 301 297 294 290 284 281 271 265 266 264 264 264 275 285 293 301 305 287 288 105 113 126 121 113 107 120 134
108 114 120 117 111 103 91 77 62 38 13 350 329 315 307 301 299 294 289 282 280 277 271 264 263 261 258 262 267 274 282 291 277 279 269 138 128 136 136 132 127 136 148
113 122 131 136 135 134 127 111 82 42 4 338 318 309 301 293 286 280 277 274 273 276 272 266 264 254 248 244 250 260 271 282 287 300 266 152 141 139 139 143 146 151 153
113 123 139 152 155 157 148 137 125 97 328 306 296 289 284 278 271 266 260 259 261 264 263 262 263 253 247 240 238 248 261 271 282 277 279 138 135 136 141 147 153 148 151
135 136 130 142 137 151 159 158 165 186 218 248 255 259 263 265 258 253 251 246 248 256 255 254 254 251 245 242 237 239 250 262 253 258 241 138 134 137 139 147 157 156 158
139 148 131 129 121 156 172 153 185 201 210 237 243 240 255 260 253 238 229 221 233 246 250 252 252 246 242 242 239 237 241 240 249 245 184 137 139 136 142 154 163 167 169
146 121 92 84 113 96 49 99 204 199 182 228 245 227 249 279 301 299 176 213 230 241 246 247 248 244 240 236 235 231 235 240 254 234 153 149 142 142 152 163 168 173 174
113 80 53 36 64 77 77 41 2 299 83 339 33 348 322 332 316 306 244 207 224 231 235 239 235 230 221 218 223 227 242 250 249 222 152 151 146 150 163 177 183 183 180
89 78 50 20 35 59 64 7 267 55 46 21 21 357 357 344 325 342 304 293 250 224 204 216 214 216 215 217 218 231 240 252 256 156 158 156 155 159 171 180 186 188 183
114 114 85 36 33 49 94 255 29 62 42 36 43 343 349 352 337 331 311 286 279 257 221 219 233 215 210 208 219 232 249 270 272 237 159 164 163 169 179 183 188 185 181
139 125 105 62 53 29 45 25 47 44 60 47 38 345 349 356 332 329 325 339 325 288 263 242 241 232 216 198 215 230 226 262 292 262 196 170 170 176 180 185 186 185 181
132 118 101 75 33 47 42 13 15 28 48 45 25 356 353 355 347 5 356 348 330 324 327 291 279 262 244 201 204 225 227 231 269 269 222 179 176 185 185 187 184 184 183
113 110 119 105 54 67 60 11 2 34 44 25 31 18 2 5 2 16 8 344 338 343 337 299 250 274 268 223 198 223 216 224 264 274 253 201 180 178 186 189 184 183 179
103 103 122 95 53 75 65 223 100 53 47 21 44 34 10 357 359 16 348 346 354 353 343 328 2 284 274 256 219 215 213 211 248 263 263 229 192 172 173 182 184 184 181
110 116 105 112 102 83 74 343 83 73 29 46 47 42 8 346 3 7 347 11 3 356 347 341 347 331 270 226 246 211 216 207 236 258 273 298 255 185 160 167 175 191 193
134 158 131 144 132 109 58 15 51 59 5 71 52 57 354 1 5 5 3 358 1 359 352 346 352 336 336 348 50 0 264 211 219 246 236 261 274 214 160 167 176 175 186
148 185 178 135 101 93 95 10 130 104 329 106 29 66 26 19 11 4 11 357 1 3 13 358 6 5 342 338 92 103 63 323 317 263 245 228 234 173 190 189 177 169 175
155 181 167 113 124 122 121 53 28 42 337 66 48 79 49 40 28 9 358 353 358 21 12 7 25 21 347 336 31 82 110 212 292 300 274 245 120 197 206 208 177 178 170
162 166 164 131 120 103 107 83 32 89 21 62 16 92 85 96 62 30 357 352 1 21 18 15 33 8 15 4 359 9 47 106 126 326 320 322 108 173 206 172 93 78 151
151 143 131 111 114 116 114 132 243 60 352 39 28 85 328 123 108 72 2 341 359 23 26 22 20 22 20 34 12 356 9 17 354 110 206 322 347 275 188 179 95 73 90
137 134 133 125 129 131 154 175 170 151 224 213 138 55 315 145 124 100 31 352 14 30 27 15 8 27 30 24 20 21 29 37 9 29 36 28 58 329 36 69 77 100 91